OBJECT AS, 67288

Orbit data source: Space-Track

You're viewing an Uncataloged Satellite

Recently launched and/or uncataloged satellites may have evolving metadata. Metadata may include but not limited to: Owner, Maufacturer, Bus, Motor, and Mission.

OBJECT AS, 67288 is a satellite in SSO that was launched on Sun, 28 Dec 2025 UTC via a SOYUZ-2-1B launch vehicle from the Vostochny Cosmodrome (VOSTO). Unknown objects in Earth's orbit typically refer to objects detected orbiting the Earth but have not yet been identified or cataloged. These objects could be anything from previously untracked satellites, spent rocket stages, debris from satellite collisions, or even natural meteoroids temporarily captured by Earth's gravity.

Loading next visibility...
Identifier
67288, 2025-313AS
Orbit
SSO
Country
Flag of TBDTBD
Related business
None
Manufacturer
Unknown
Mission
Operational Commercial Communications
Bus & Motor
Unknown
Mass
Unknown
Launch date (UTC)
2025-12-28 (6 months ago)
Launch vehicle
SOYUZ-2-1B
Launch site
Vostochny Cosmodrome (VOSTO)
Object type
Unknown
Shape & HBR
Box, 0.1 m
Radar Cross Section
0.035 m², Medium (>0.1 m² and < 1m²)

Expand to show TLE details & history
Last TLE update: 1 day ago

TLE from 1 day ago
0 OBJECT AS
1 67288U 25313AS  26170.76386438  .00004194  00000-0  18026-3 0  9994
2 67288  97.3920 245.4893 0010779 348.4791  11.6197 15.23157930 26355
Epoch: 2026-06-19T18:19Z
TLE epoch observation values (Epoch: 2026-06-19T18:19:57.882Z)
Latitude
-0.00007°
Longitude
62.50997°
Altitude
492.158 km
Speed
7.623 km/s
True Right ascension
16h 21m 57s
True Declination
0° 00' 00"
Sunlit
Object was in full shadow at epoch
Visualization orbit readout
Latitude
Unknown
Longitude
Unknown
Altitude
Unknown
Speed
Unknown
Apparent Right ascension
Unknown
Apparent Declination
Unknown
Sunlit
N/A
Visualization observer readout
Local Sidereal Time
07:19:44
Azimuth
Unknown
Elevation
Unknown
Doppler factor
Unknown
Orbital elements
Apogee altitude
500.69 km
Perigee altitude
485.877 km
Semi-major axis
6,871.42 km
Eccentricity
0.00108
Inclination
97.392°
RAAN
245.4893°
Arg. of periapsis
348.4791°
True anomaly
11.64461°
Mean anomaly
11.6197°
Eccentric anomaly
11.63215°
Mean motion
3.81042 °/min
Orbital period
94.48 mins
BSTAR
0.00018026
Loading maneuver chart data...
Computing Atmospheric mass density...
Loading historical data...
Loading historical data...
Loading historical data...
Loading historical data...
Loading historical data...
Loading historical data...
Loading historical data...

Documentation

Showing up to 5 results
|